Погода в Нижних Бузулей

Россия / Амурская область     51°37′31″N   128°11′36″E
темп.,
°C
ветер,
м/с
пор.,
м/с
влажн.,
%
обл.,
%
осадки,
мм/ч
давл.,
гПа
погр.,
м
1 декабря, ср
ср100:00−17ссз359674 0.0 102180
03:00−18ссз37895 0.0 1020114
06:00−19ссз37915 0.0 1019127
09:00−18ссз39925 0.0 1018207
12:00−14ссз510710 0.0 1015540
15:00−13ссз49720 0.0 1012503
18:00−18сз25925 0.0 101267
21:00−20ссз22945 0.0 100928
2 декабря, чт
чт200:00−21сз22955 0.0 100717
03:00−21св1194100 0.0 10059
06:00−20в0091100 0.0 100315
09:00−17ссв1179100 0.0 100373
12:00−14ссз3567100 0.0 1002375
15:00−13ссз3778100 0.0 1002541
18:00−17зсз249548 0.0 100361
21:00−18сз369316 0.0 1004117
3 декабря, пт
пт300:00−17сз39845 0.0 1004194
03:00−17сз410790 0.0 1005252
06:00−17сз510785 0.0 1006286
09:00−17сз5117619 0.0 1008351
12:00−15ссз69665 0.0 1009675
15:00−15ссз596744 0.0 1011815
18:00−17сз511705 0.0 1015334
21:00−18ссз512710 0.0 1017346
4 декабря, сб
сб400:00−20сз410750 0.0 1019251
03:00−21сз49780 0.0 1021214
06:00−22сз37831 0.0 1023146
09:00−22зсз24884 0.0 102482
12:00−17зсз23625 0.0 1023356
15:00−16ююз34695 0.0 1022327
18:00−20ю3793100 0.0 1022131
21:00−20ююв4109041 0.0 1021202
5 декабря, вс
вс500:00−20ююв499146 0.0 1020195
03:00−20ююв379577 0.0 1019155
06:00−19юв369757 0.0 1019157
09:00−20юв3798100 0.0 1019160
12:00−15ююв4691100 0.0 1017293
15:00−13юв4792100 0.1 1016394
18:00−12юв3995100 0.1 1015370
21:00−11ююв3896100 0.2 1013262